Theta_e
294 294 294 293 294 295 295 295 294 294 295 295 294 294 295 295 294 294 295 295 295 295 295 295 295 295 295 295 295 296 296 296 296 295 295 295 295 295 294 294 293 293 292 292 291 291 290 289 289 289 289 289 288 288 287 288 287 287 287 287 287 287 286 286 286 286 286 285 286
294 293 293 293 294 294 295 294 294 294 295 295 295 295 295 295 295 295 295 295 295 295 295 295 295 295 295 296 296 297 297 296 296 296 295 295 295 294 293 293 292 292 292 291 291 290 290 289 289 289 289 289 288 288 288 287 287 287 286 286 286 287 287 287 287 286 286 286 286
294 293 294 294 294 294 294 294 294 293 294 294 294 295 295 295 295 295 295 295 295 295 295 295 295 296 296 297 297 296 296 296 296 295 294 294 293 293 292 292 292 291 291 290 290 290 289 289 288 289 289 289 288 288 288 288 287 287 287 286 287 287 288 288 287 287 287 288 287
293 293 293 293 293 293 293 293 293 293 293 294 294 295 295 296 296 296 295 295 295 295 295 295 295 296 296 296 296 295 294 294 293 293 292 292 292 292 292 291 291 291 291 290 290 289 289 289 289 289 289 288 287 287 287 289 288 288 287 287 288 288 288 289 289 289 289 289 288
293 293 293 293 293 292 292 293 292 293 293 294 295 295 295 295 295 295 295 294 294 294 294 294 294 294 294 294 294 293 292 292 291 291 291 291 291 291 291 291 291 291 291 291 290 290 289 289 289 289 288 288 288 288 288 288 288 288 288 289 289 289 289 289 289 289 289 289 289
292 292 292 292 292 292 292 292 292 293 293 294 294 294 294 294 294 294 293 293 293 293 293 292 291 291 292 293 292 292 292 292 292 292 292 292 292 291 291 291 291 291 291 291 290 290 289 288 289 289 289 289 288 288 288 288 288 288 288 289 289 289 289 289 289 289 289 289 288
291 291 292 292 292 292 292 292 292 292 293 293 292 293 293 293 293 293 292 293 292 292 291 291 291 291 291 292 291 291 291 292 292 292 291 291 291 291 291 291 291 290 290 289 289 289 289 288 289 289 289 289 289 289 288 288 288 288 288 289 289 289 289 288 289 289 289 287 287
291 291 291 291 292 291 291 291 291 291 292 292 291 291 291 291 292 292 292 292 292 292 291 291 292 291 291 291 291 291 291 291 291 291 291 291 291 291 290 290 289 289 288 288 288 288 288 288 289 289 289 289 289 289 289 288 288 288 288 288 289 289 289 289 289 289 288 287 287
290 290 290 290 291 291 290 290 290 290 290 290 290 290 290 290 291 291 291 291 291 291 291 291 291 291 291 291 290 291 291 290 290 290 291 290 290 290 289 289 288 288 288 288 288 288 287 288 288 288 288 289 289 289 288 288 288 287 287 288 288 288 288 289 288 288 287 287 287
289 289 289 289 289 289 289 289 289 289 289 289 289 289 288 288 289 289 290 290 290 290 290 290 290 290 291 291 290 290 290 290 290 289 289 289 288 288 288 287 287 287 287 287 287 287 287 287 287 287 287 287 287 287 287 287 286 286 286 287 287 286 286 286 286 286 286 286 285
288 288 288 288 288 289 289 289 289 288 288 288 288 288 287 287 288 288 288 288 289 290 290 290 290 290 290 290 290 290 289 289 289 288 287 287 287 287 286 286 286 286 286 286 286 286 286 286 285 285 285 285 285 285 285 284 284 284 284 284 284 284 283 284 284 284 284 284 284
287 287 288 288 288 288 288 288 288 288 288 288 287 287 287 288 288 288 288 288 289 290 290 290 290 290 290 289 289 288 288 287 287 287 286 286 286 286 285 285 285 285 285 285 285 285 285 285 285 284 284 284 284 284 283 283 283 282 282 282 282 282 282 282 283 283 283 283 283
287 288 288 288 288 288 288 288 288 288 288 288 287 287 287 288 288 288 288 289 289 290 290 290 289 289 288 287 287 287 286 286 286 285 285 285 285 285 285 285 285 285 286 286 286 285 285 285 284 284 283 283 283 283 283 283 282 282 282 282 282 282 282 282 282 282 282 282 282
288 288 288 288 289 289 289 289 289 288 288 288 287 287 287 287 287 288 288 289 289 289 289 288 287 287 287 286 286 286 286 286 285 286 285 285 286 286 286 286 286 286 286 286 286 286 285 284 284 283 283 283 283 283 283 282 282 282 282 282 282 282 282 283 282 282 282 282 282
288 289 289 289 289 289 289 289 289 288 288 287 287 287 287 287 287 287 287 288 288 287 287 286 286 286 287 287 287 287 286 286 286 286 286 286 286 286 286 286 286 286 286 286 286 285 285 284 284 283 283 283 283 283 283 283 283 282 283 283 283 283 283 283 283 283 283 282 283
289 289 289 289 289 289 289 289 288 288 287 287 286 286 286 286 286 286 287 287 287 287 287 286 286 286 287 287 287 287 286 286 286 286 286 286 286 286 286 286 286 286 285 285 285 285 285 285 284 284 284 283 283 283 283 283 283 283 283 283 283 283 283 283 283 283 283 283 282
290 290 289 289 289 289 288 288 287 286 286 285 285 285 285 286 287 288 288 288 288 288 288 287 287 287 287 287 287 287 286 286 286 286 286 286 286 286 286 285 285 285 285 285 285 285 285 284 284 284 284 284 284 284 284 284 284 284 284 284 284 284 284 284 284 283 283 283 282
290 290 289 289 288 288 287 286 285 285 285 285 286 287 288 289 289 290 290 290 290 289 288 288 287 287 287 287 287 286 286 286 286 286 286 286 286 285 285 285 285 285 285 285 285 285 285 285 285 285 285 284 284 284 284 284 285 285 285 285 284 284 284 284 284 284 284 283 283
288 288 288 288 287 287 286 286 286 286 287 287 288 289 290 291 291 291 291 291 290 290 289 288 288 287 287 286 286 286 286 286 286 286 286 286 285 285 285 285 285 285 285 285 285 285 285 285 285 285 285 285 285 285 285 285 285 285 285 285 285 285 284 284 284 284 284 283 282
287 287 288 288 288 288 288 288 288 289 289 290 290 291 291 291 292 292 292 291 291 290 289 288 288 287 287 286 286 286 286 286 286 286 286 286 286 285 285 285 285 285 285 285 285 285 285 285 285 285 285 285 285 285 285 285 284 285 285 285 285 285 285 285 284 284 283 283 282
288 289 289 289 290 290 290 291 290 290 291 291 291 291 292 292 292 292 292 291 291 290 289 288 287 286 286 286 286 286 286 286 286 286 286 286 285 285 285 285 285 285 285 285 285 285 285 285 285 285 285 284 284 284 284 284 284 284 284 284 284 284 284 283 283 282 282 282 282
289 290 290 291 291 291 291 292 291 291 291 292 292 292 292 292 292 292 292 291 290 289 288 287 286 286 286 285 285 285 285 286 286 286 285 285 285 285 285 285 284 284 284 284 284 284 284 284 284 284 284 284 284 284 284 284 284 283 283 283 283 283 282 282 282 282 283 283 283
289 290 291 291 291 291 291 291 291 291 292 292 292 293 293 293 293 292 291 290 289 287 286 286 286 285 285 285 285 285 285 285 285 285 285 285 285 284 284 284 284 283 283 284 284 284 283 284 284 284 283 283 283 283 283 283 282 282 282 281 281 281 282 282 282 283 283 284 284
289 290 290 291 291 291 290 290 291 291 292 292 292 292 292 292 292 291 290 288 287 285 285 285 285 285 285 285 285 285 284 284 284 284 284 284 284 283 283 283 283 283 283 284 284 285 285 284 284 284 283 283 282 282 281 281 280 280 281 281 281 281 282 282 282 283 283 284 284
290 290 290 291 291 291 291 291 291 292 292 292 292 292 292 291 291 289 288 286 285 284 284 284 284 284 285 284 284 284 284 284 283 283 283 283 283 283 283 283 283 283 284 284 286 288 288 287 286 285 283 282 281 281 280 280 280 280 280 281 281 281 281 281 281 282 283 283 283
290 290 290 291 291 291 291 291 292 292 292 292 291 291 290 290 289 287 286 284 283 283 283 283 284 284 284 284 284 283 283 283 283 282 282 282 282 282 282 283 283 283 284 285 287 288 288 288 288 286 283 281 280 279 279 279 280 280 280 280 281 281 281 281 281 282 282 283 283
289 289 289 290 290 291 291 291 291 290 290 290 290 289 288 288 286 285 284 283 283 283 283 283 283 283 283 283 283 283 283 282 282 282 282 281 281 281 281 282 282 282 284 286 287 287 288 288 288 288 285 281 279 279 279 279 279 280 280 280 281 281 281 281 281 282 282 282 282
287 287 288 288 288 289 289 288 288 288 288 288 287 287 286 285 284 283 283 282 282 282 283 283 283 283 283 283 283 283 282 282 282 282 282 281 281 280 280 281 280 282 284 286 287 287 288 288 289 289 287 283 280 279 279 279 279 280 280 280 281 281 281 281 281 281 281 281 281
286 287 287 287 287 287 287 287 287 287 287 286 286 285 284 283 282 282 282 282 282 283 283 283 283 284 284 284 284 283 283 283 282 282 282 281 280 279 279 279 279 281 283 286 286 287 288 288 289 289 288 287 282 280 279 278 279 280 280 281 281 281 281 281 281 281 281 281 281
285 285 285 285 285 286 286 286 286 285 285 284 284 283 282 282 282 282 282 282 283 283 284 284 284 285 285 284 284 284 283 283 282 281 280 279 279 279 278 279 279 280 282 285 286 287 288 289 289 288 288 287 284 281 280 279 280 280 280 281 281 280 280 280 280 280 280 280 280
285 284 284 284 284 284 284 284 284 284 284 283 283 283 282 282 283 283 283 283 284 284 284 285 286 285 285 285 285 284 283 282 281 280 279 278 278 278 278 278 277 279 281 285 286 287 288 288 288 287 287 287 284 282 281 280 280 280 280 280 280 280 280 280 280 280 280 280 281
285 284 283 283 283 283 283 283 283 283 283 283 283 283 283 283 283 283 284 284 285 286 286 287 287 286 286 285 284 283 282 281 280 279 278 277 277 277 277 277 277 278 281 285 286 287 287 287 287 287 286 286 284 282 280 280 280 280 280 280 280 280 280 281 281 281 281 281 282
284 283 283 283 283 283 283 283 282 282 283 283 283 283 283 283 284 284 285 286 287 287 287 287 287 286 286 285 283 282 280 279 278 277 277 277 277 277 277 277 277 279 282 285 286 287 287 286 286 286 286 286 284 282 280 280 280 280 280 280 281 281 281 281 282 282 282 282 283
283 283 283 282 282 282 282 281 281 282 282 283 283 284 284 284 285 286 287 287 288 288 288 287 287 286 284 283 281 280 279 277 277 277 277 276 276 276 276 276 276 279 283 285 286 286 286 286 286 286 285 285 283 281 280 279 280 280 281 281 282 282 282 282 282 282 282 283 283
282 283 283 282 282 282 281 281 281 282 282 283 284 284 285 286 287 287 288 288 288 288 287 287 285 283 281 280 279 278 277 277 277 277 276 276 275 275 276 276 276 279 283 285 285 285 285 285 285 285 285 284 282 280 280 279 280 281 281 281 282 282 282 282 282 283 283 284 284
282 282 282 282 282 281 281 281 282 283 283 283 285 285 286 287 288 288 288 288 287 287 286 284 282 280 279 278 277 277 277 277 277 277 276 275 275 275 275 275 275 278 282 284 284 284 285 285 285 285 284 283 281 280 280 281 281 281 281 281 281 281 282 282 283 284 285 285 285
283 282 282 281 281 282 282 283 284 284 285 285 286 287 287 288 289 288 288 287 286 284 282 280 278 278 277 277 277 277 277 277 276 276 276 275 274 274 274 274 274 276 279 283 284 284 284 284 284 284 283 282 281 280 281 281 282 282 282 282 282 282 283 284 284 284 284 284 284
283 283 283 283 283 283 284 285 285 286 287 287 288 288 288 288 288 287 287 285 283 281 279 278 277 277 277 277 277 277 276 276 276 275 275 275 274 274 273 274 274 275 278 282 283 284 284 284 284 284 283 281 281 281 281 282 282 282 283 283 283 284 284 284 283 283 282 282 283
285 285 285 285 285 286 286 287 287 288 288 288 288 288 288 288 287 286 284 282 280 279 277 277 277 277 277 277 276 276 276 275 275 275 274 274 274 274 274 274 274 275 277 281 283 284 284 284 284 284 283 281 281 281 282 282 282 283 283 283 283 282 282 281 281 281 281 280 282
287 287 287 287 287 288 288 288 288 288 288 288 288 288 287 286 285 283 282 278 277 277 277 277 277 276 276 276 275 275 274 274 274 274 274 273 274 276 277 274 273 274 276 280 282 283 283 284 284 284 283 282 281 282 282 282 283 282 282 282 281 280 280 279 280 280 279 279 280
288 288 288 289 289 289 289 289 288 288 288 288 287 286 285 283 281 280 278 277 276 276 276 276 276 276 275 275 274 274 273 273 273 273 273 273 273 275 276 273 273 273 275 278 281 283 283 283 283 284 283 282 282 281 282 282 282 281 281 280 280 279 279 279 279 279 279 278 279
Wind_Speed
4 4 4 4 4 4 4 4 4 4 4 4 4 4 5 5 5 4 4 4 4 4 3 3 3 3 3 3 4 6 7 8 9 9 9 8 7 7 6 5 4 4 4 4 4 3 3 2 1 1 1 1 1 2 2 2 2 2 3 3 4 4 4 5 6 6 6 6 5
5 5 5 5 5 4 4 4 4 4 4 4 4 4 5 5 5 4 4 4 3 3 3 3 3 3 4 6 8 8 8 8 7 7 6 5 4 4 4 4 4 4 4 4 4 3 3 2 2 2 2 2 2 2 2 2 2 3 3 4 4 4 4 5 6 6 6 6 5
5 5 4 5 5 5 4 3 4 4 4 4 4 4 4 4 4 4 4 3 3 3 3 2 2 4 6 7 6 5 4 3 2 2 3 4 4 4 3 3 4 4 4 4 4 4 3 3 2 2 2 2 2 3 3 3 3 3 4 5 4 4 4 5 5 5 5 5 5
5 5 5 5 6 6 4 4 4 5 5 4 5 5 4 4 3 3 3 2 2 3 3 3 4 4 3 2 1 1 1 2 3 4 4 3 3 3 3 4 4 5 5 5 4 4 4 4 3 2 2 3 3 3 4 4 4 4 4 4 4 4 4 5 5 5 5 5 5
4 4 4 5 7 6 5 4 5 5 4 4 4 4 4 4 3 3 2 2 2 3 3 4 4 4 3 3 3 3 3 4 3 3 2 2 3 4 4 5 5 6 6 6 6 5 5 4 3 2 3 3 3 4 4 5 4 4 4 4 4 4 4 5 5 4 4 5 5
4 3 4 5 6 6 5 4 5 5 5 4 5 5 4 3 3 3 3 3 3 3 4 4 4 4 4 4 3 3 2 1 1 1 2 3 4 5 6 6 7 7 6 6 6 5 4 3 3 3 3 3 4 4 5 5 5 5 5 5 5 4 4 5 5 5 5 6 6
4 4 4 5 6 6 6 5 5 5 5 5 6 6 5 4 4 3 3 2 2 2 2 3 3 3 3 3 2 1 1 0 1 2 3 4 5 6 7 7 7 7 7 6 5 4 3 3 3 3 3 3 3 4 5 5 5 5 5 6 5 5 5 5 5 5 5 7 8
4 4 4 5 6 7 6 6 5 5 5 5 6 6 6 5 4 3 3 2 2 2 1 2 2 3 3 3 2 1 0 1 2 3 4 5 6 7 7 7 7 6 6 5 5 4 4 3 3 3 3 3 3 4 4 5 5 5 6 6 6 5 5 5 5 5 6 7 8
2 3 3 4 5 5 5 5 5 5 5 6 6 6 6 5 4 3 3 2 2 1 2 2 2 3 3 2 1 1 2 3 4 5 6 6 7 7 6 6 5 5 5 4 4 4 4 3 3 3 3 3 3 4 5 5 6 6 6 6 5 5 5 5 5 5 6 7 8
2 2 2 3 3 4 4 4 5 5 5 5 5 5 5 4 4 3 2 2 2 2 2 2 2 2 2 1 1 2 4 5 6 6 6 6 5 5 5 5 5 5 4 4 3 3 3 2 3 3 3 3 4 4 5 5 5 6 5 5 5 5 6 5 5 5 6 6 7
2 2 2 3 3 4 4 4 4 4 4 4 4 4 3 3 3 3 3 2 2 2 2 2 2 2 2 2 3 4 5 5 4 4 4 4 4 5 5 5 5 5 5 4 3 2 2 2 3 3 3 3 3 4 4 4 4 5 5 4 4 5 5 6 5 5 5 6 7
2 2 2 3 3 4 4 4 3 3 3 4 3 3 3 2 3 3 3 3 2 2 2 3 2 2 3 3 4 4 4 3 3 3 3 4 4 4 5 5 5 5 5 4 3 2 2 2 3 3 4 4 3 3 3 4 4 4 5 5 4 4 5 6 6 5 5 5 6
3 3 3 3 3 3 4 4 3 3 3 4 3 3 2 2 3 3 3 3 2 2 2 2 2 2 2 2 2 2 2 2 2 3 3 4 4 4 4 4 4 4 4 4 3 3 3 3 4 4 4 4 4 4 4 4 4 5 5 6 5 5 6 7 6 6 5 5 6
3 4 4 4 4 4 4 4 3 3 3 3 3 2 2 1 1 1 2 2 1 1 0 0 0 0 1 1 1 2 2 2 2 3 3 4 4 4 4 4 5 5 5 4 3 3 3 4 4 4 4 5 5 5 5 5 5 5 6 6 7 7 7 7 7 7 6 6 7
4 4 4 4 4 4 4 4 3 3 3 2 1 1 1 1 2 2 2 2 1 1 0 1 1 1 1 1 1 2 2 2 3 3 4 4 5 5 5 5 5 5 5 5 4 4 4 4 4 4 5 5 6 6 6 6 6 6 6 7 7 8 8 8 8 7 7 8 8
5 5 5 5 5 4 4 3 2 2 2 2 2 2 2 2 1 2 2 2 1 1 2 3 3 3 3 3 3 3 3 3 4 4 4 5 5 5 5 5 5 5 5 5 5 4 4 4 4 5 5 6 7 7 7 7 7 7 7 8 8 8 8 9 8 8 8 8 8
5 5 4 4 4 3 3 2 2 2 2 2 2 2 2 1 1 1 2 3 3 4 4 5 4 4 4 4 4 3 3 3 4 4 4 5 5 5 5 5 5 5 5 5 5 5 6 5 5 6 6 7 7 7 7 8 8 8 8 9 9 9 9 9 9 8 8 8 8
4 3 3 3 3 3 3 3 3 3 3 2 2 2 2 2 2 3 3 4 4 5 5 6 5 5 4 5 4 3 3 3 3 4 4 4 4 4 5 5 5 5 5 5 6 6 7 7 7 7 7 7 7 8 8 8 9 9 9 10 10 9 9 9 9 9 8 9 9
2 2 2 3 4 4 4 4 4 4 3 3 2 3 3 3 3 3 4 4 4 5 6 7 6 6 5 5 4 3 2 2 3 3 4 4 4 4 5 5 6 6 6 6 6 7 7 8 8 8 8 8 8 8 9 9 9 9 10 10 10 10 10 9 9 9 9 9 8
3 3 3 4 5 5 5 5 5 4 3 3 3 3 3 2 2 2 2 4 5 6 7 7 7 6 5 4 3 3 2 2 2 3 4 4 4 5 5 6 6 6 6 6 7 7 8 8 8 8 8 9 9 9 9 9 9 9 10 9 9 9 9 9 9 9 8 8 7
3 3 3 3 4 4 5 5 4 4 4 4 3 2 1 1 0 2 4 6 7 7 7 7 6 5 4 3 3 3 3 2 2 3 4 4 5 5 6 6 6 6 7 7 7 7 8 8 8 9 9 9 9 9 9 9 9 9 9 9 8 8 8 8 7 7 7 7 7
3 3 3 3 3 3 4 4 4 4 4 3 3 2 2 2 3 5 6 7 7 7 6 6 5 4 4 4 3 3 3 2 3 3 4 4 5 6 6 6 6 6 7 7 7 8 8 8 8 8 8 8 9 9 9 9 9 8 8 8 8 7 7 7 6 6 6 7 7
3 2 2 3 3 3 3 3 3 3 4 4 4 3 3 4 5 6 7 6 6 5 5 4 4 4 4 4 3 2 2 3 3 4 4 5 5 6 6 6 6 6 7 7 7 7 7 7 8 8 8 8 8 8 8 8 7 7 6 6 6 6 6 6 6 6 7 7 7
3 3 3 2 3 3 3 3 3 4 4 5 5 5 5 5 6 6 6 5 5 4 4 4 4 4 4 3 2 2 2 3 4 5 5 6 6 6 6 6 6 6 6 6 6 7 7 7 7 7 7 7 7 6 6 5 5 5 5 5 6 6 7 7 7 7 8 8 8
3 3 3 3 3 3 3 3 4 4 5 5 5 4 4 5 5 5 4 4 4 4 4 4 4 3 3 2 1 2 2 3 4 5 5 6 6 6 6 6 5 5 5 6 9 10 11 9 8 7 6 6 5 4 4 3 3 4 5 5 6 7 7 8 8 8 9 9 10
4 4 4 4 4 4 4 5 5 5 5 4 4 4 4 5 4 4 3 3 3 4 4 4 3 2 1 1 2 2 3 3 4 5 5 6 7 7 6 6 5 5 6 7 10 11 12 13 12 9 7 4 3 3 3 3 4 4 5 6 6 7 8 9 9 10 10 11 11
4 4 4 4 4 5 5 5 5 4 4 4 4 5 5 4 3 3 3 3 3 3 3 3 2 2 2 2 2 3 4 4 4 5 6 6 7 7 6 6 6 5 6 9 11 12 13 13 13 11 7 3 2 2 3 4 4 5 6 6 7 8 9 10 11 12 12 12 12
4 4 4 4 5 5 5 5 4 5 5 5 5 5 4 3 2 2 2 3 2 2 2 2 2 2 2 2 3 4 5 5 5 5 6 6 6 7 7 6 6 6 8 10 12 12 12 12 11 9 6 3 2 2 3 4 5 5 6 6 7 8 9 10 11 11 12 12 12
4 4 4 4 5 5 5 4 5 6 6 6 5 4 3 2 2 2 2 2 1 1 2 2 2 3 3 4 4 5 5 5 5 5 5 5 6 6 7 7 7 8 9 12 12 12 12 11 9 7 6 6 4 3 3 4 4 5 6 7 7 8 9 10 10 10 11 11 11
4 4 4 5 5 5 5 5 6 6 6 5 4 3 2 2 2 2 1 0 1 2 2 3 4 5 6 6 6 5 5 5 5 4 4 5 5 6 6 7 7 7 9 11 11 11 10 9 7 7 8 8 6 5 4 5 5 6 6 7 8 9 9 10 10 10 10 10 10
4 4 4 5 6 6 6 6 6 6 5 4 3 3 3 2 2 1 1 1 2 3 4 5 6 7 8 8 6 6 6 5 4 4 4 5 6 7 7 8 7 8 8 10 10 9 8 8 9 9 10 10 8 6 5 6 6 6 7 7 8 9 9 9 10 10 11 11 11
5 5 5 5 6 7 7 6 5 4 3 3 3 3 3 2 2 1 1 2 3 4 5 6 7 8 9 8 6 5 5 4 4 5 5 6 6 6 7 7 7 7 7 8 8 8 8 9 10 11 11 12 9 7 6 6 7 7 7 8 9 9 9 9 9 10 11 12 12
5 5 6 6 7 6 5 3 2 2 3 3 3 3 3 2 2 2 3 4 4 5 5 6 7 8 8 7 6 5 4 4 4 5 6 6 6 6 6 6 6 6 7 7 7 8 9 10 11 12 13 13 10 7 6 7 6 6 7 8 9 9 10 10 11 11 12 13 13
5 6 6 7 6 4 2 1 2 3 3 4 3 3 3 3 3 4 4 4 4 4 5 6 7 7 6 5 4 4 4 4 5 5 6 6 5 5 5 5 4 5 6 7 8 9 10 11 13 14 14 13 9 7 6 7 6 7 7 8 9 10 10 11 12 12 13 14 13
6 6 6 5 2 0 2 3 3 4 4 4 4 3 3 4 3 3 4 4 4 5 5 6 5 4 3 3 3 3 3 4 5 5 6 5 4 4 4 4 4 4 6 7 8 10 11 13 14 15 14 12 8 6 6 7 7 8 9 9 10 11 11 12 11 11 11 12 11
4 3 2 1 3 3 4 4 4 4 4 4 4 4 4 4 4 4 4 5 5 5 5 4 3 2 2 2 3 3 4 4 5 5 5 5 4 3 4 4 4 5 6 8 9 11 12 14 15 15 14 10 7 6 6 7 7 8 9 10 11 11 11 11 10 9 8 8 8
1 3 4 5 5 4 4 4 4 4 4 4 4 4 4 4 5 5 5 4 4 4 3 2 2 2 2 3 3 4 4 4 4 5 5 4 3 3 3 3 4 4 6 8 10 12 13 14 15 15 13 8 7 6 7 7 7 8 9 10 10 10 9 7 6 6 7 7 8
5 6 6 5 5 4 4 4 4 4 4 4 4 4 5 5 5 5 4 3 3 3 2 2 2 3 3 4 4 4 5 4 3 4 4 4 3 2 2 3 4 4 6 8 10 12 14 15 16 16 13 8 7 7 7 7 7 8 8 9 8 6 5 4 4 5 6 8 10
6 6 6 5 4 4 4 4 4 4 4 5 5 5 5 5 4 3 3 2 2 2 2 2 3 4 4 4 4 4 4 4 3 3 3 3 3 3 3 3 3 4 6 8 11 13 15 16 17 17 15 9 7 7 7 7 8 8 8 6 5 5 5 5 5 5 6 8 12
6 6 5 4 3 3 3 4 4 5 5 5 6 6 5 4 3 3 2 1 1 1 2 2 4 4 4 4 3 3 4 4 3 2 2 3 3 3 3 3 4 5 6 8 11 14 15 16 17 17 15 9 7 6 6 7 7 7 6 5 5 5 5 6 6 6 7 8 11
5 4 3 2 1 2 3 5 5 5 5 5 5 4 3 2 2 1 1 1 1 1 2 2 4 4 4 3 2 2 3 4 4 3 2 3 3 4 3 3 4 5 6 8 11 14 16 17 18 18 16 10 8 6 6 6 7 7 6 5 5 6 6 7 7 7 7 8 8
Wind_Direction
44 42 42 51 61 64 61 52 45 48 57 65 66 69 73 77 77 76 75 77 84 91 97 102 111 115 108 79 51 35 24 15 9 3 357 351 344 335 326 315 306 299 294 292 290 287 280 265 255 250 249 242 246 252 257 262 267 273 277 278 279 280 282 284 283 282 282 281 279
61 59 60 65 69 71 71 67 60 59 64 72 74 77 79 83 86 87 88 91 102 112 119 125 126 93 53 34 27 19 11 3 357 349 338 321 302 286 276 273 275 278 281 281 277 271 261 247 246 254 263 265 273 276 276 271 268 272 276 275 274 276 278 280 277 275 273 274 274
84 81 80 84 83 84 85 85 78 74 73 75 77 80 84 88 94 99 105 113 122 125 125 125 93 53 37 26 21 16 7 351 327 291 263 249 245 246 253 266 276 278 275 269 262 255 248 242 245 255 265 275 278 279 278 276 270 269 269 269 270 272 274 275 272 271 270 271 269
97 100 102 102 103 103 103 104 94 89 85 83 80 78 77 78 80 85 94 106 106 104 99 94 80 67 58 54 70 125 171 189 201 211 220 230 247 265 277 281 279 275 270 261 254 248 245 243 247 256 264 270 272 272 272 274 272 269 267 266 268 269 270 270 269 269 269 269 265
103 112 116 114 112 111 109 106 101 96 92 87 82 77 72 68 65 62 57 52 53 60 69 79 91 105 121 133 146 161 174 183 191 204 235 279 291 291 286 280 274 268 262 254 249 247 246 246 253 261 265 266 268 268 269 270 270 271 272 273 272 270 269 270 270 269 268 269 267
121 123 119 113 109 109 108 105 104 101 96 89 87 85 83 82 79 76 71 65 64 66 71 77 90 105 119 127 138 149 163 179 208 284 303 299 290 284 279 274 266 260 255 250 248 247 249 250 263 270 272 272 274 273 272 270 271 273 275 277 275 273 272 271 271 271 270 270 269
134 131 125 120 116 115 115 113 111 108 103 98 99 100 102 101 99 98 97 95 87 81 80 85 96 105 115 121 121 119 104 339 304 291 283 276 272 269 266 263 259 255 252 250 251 253 254 252 266 275 279 280 281 280 277 274 272 274 276 277 277 277 276 274 274 274 273 272 270
136 136 133 127 124 123 124 124 121 117 114 113 115 116 117 116 114 112 109 103 99 98 101 102 114 121 123 122 117 117 197 270 269 264 260 257 256 256 256 256 256 256 255 254 255 258 261 260 265 270 275 278 280 280 279 277 275 276 277 278 280 281 280 279 279 279 277 276 275
130 129 127 122 121 122 123 122 119 117 116 118 121 123 125 124 122 120 116 114 125 127 125 123 131 132 130 125 134 181 232 243 247 248 248 247 249 252 255 258 259 260 260 258 257 257 259 263 265 267 268 272 274 277 279 281 282 281 281 281 283 283 282 280 280 280 279 278 277
136 128 117 111 111 110 108 105 103 105 109 113 117 121 123 125 126 128 133 145 143 140 140 148 145 139 133 141 197 226 234 236 239 242 246 250 253 256 258 259 258 260 261 262 258 254 254 260 266 268 270 271 272 276 280 283 284 282 281 282 283 283 283 282 280 278 277 276 275
146 139 130 123 118 109 101 96 93 96 103 111 116 120 125 128 136 145 152 150 142 149 166 174 162 162 179 211 226 230 233 235 240 247 253 259 258 256 254 252 252 254 257 259 256 253 253 260 268 272 273 273 272 275 278 280 278 276 275 276 278 279 280 279 276 275 272 271 271
156 149 142 135 127 116 108 106 107 110 115 122 129 134 141 150 158 161 158 148 152 173 191 191 186 194 209 223 230 235 240 245 248 251 252 254 252 250 248 248 249 251 255 258 257 258 264 268 271 274 275 275 272 272 272 272 272 272 272 274 274 274 274 274 272 270 269 268 269
163 157 149 142 132 123 119 122 128 132 135 140 147 155 163 175 173 165 157 156 169 188 203 203 197 204 217 230 239 245 248 246 240 240 242 245 248 251 253 255 258 261 265 268 270 274 278 277 275 275 276 277 276 273 269 268 269 271 273 275 276 275 274 274 272 271 270 271 271
168 163 157 152 144 138 136 140 145 148 149 154 160 164 166 173 149 132 130 139 153 164 163 32 85 204 218 232 245 249 248 244 244 249 255 261 263 267 271 275 277 280 283 285 286 285 284 281 277 275 275 276 277 275 271 269 270 271 273 275 276 276 276 275 274 274 274 275 275
171 170 165 160 156 152 151 153 155 153 148 146 129 82 55 52 56 68 82 94 101 94 58 17 352 315 276 270 282 284 282 278 278 280 282 284 286 286 288 289 291 292 293 294 293 289 284 278 274 272 273 274 275 276 275 275 273 273 273 274 274 275 275 276 275 275 274 274 276
175 176 173 167 164 160 155 150 137 116 97 83 66 59 58 64 79 86 86 79 67 37 9 355 344 335 327 319 311 305 299 295 293 293 293 293 293 294 295 296 296 295 295 295 293 290 284 278 273 272 272 273 276 277 278 278 278 277 276 275 274 274 274 274 275 274 273 272 273
181 182 179 172 162 152 136 114 95 84 81 81 87 91 94 94 81 62 45 30 16 2 350 339 331 322 314 306 301 297 296 295 294 292 292 291 292 294 294 294 292 291 290 289 288 287 285 282 278 276 275 276 277 279 280 280 280 279 278 277 275 274 274 273 273 272 272 271 269
187 184 176 161 145 131 118 106 103 106 111 117 114 99 76 55 37 25 15 7 357 342 327 312 302 294 287 284 284 286 288 290 289 288 287 287 288 289 290 288 287 286 285 285 285 284 284 284 284 283 283 283 282 282 282 281 281 280 278 277 276 274 273 272 271 269 268 267 265
180 168 155 146 137 131 127 124 125 125 124 117 99 75 57 43 30 17 1 345 322 302 288 280 277 274 273 273 277 280 281 278 280 281 283 283 286 287 287 287 287 287 286 286 285 286 286 287 288 288 288 288 286 285 283 282 280 279 277 276 275 274 273 271 268 266 265 263 262
156 153 153 151 144 140 136 134 129 123 114 102 89 77 65 50 31 360 315 284 270 265 263 263 265 267 270 274 276 275 270 264 271 278 282 285 288 289 289 289 290 290 290 290 290 290 290 291 290 290 289 287 286 285 283 282 280 278 277 277 275 274 272 269 268 267 265 264 263
150 152 153 149 140 135 132 127 122 116 112 110 109 110 112 101 267 256 251 250 251 254 257 260 262 263 264 265 264 263 262 263 272 279 284 288 290 290 290 290 292 293 294 294 293 292 292 291 290 289 287 286 284 283 282 281 280 279 278 277 277 275 274 272 270 268 266 263 261
147 145 138 128 119 116 117 117 119 122 128 136 148 162 182 212 233 238 240 243 248 254 258 261 256 250 244 240 243 250 261 277 284 287 289 291 292 292 292 293 294 294 294 294 293 291 290 289 287 286 284 284 282 281 280 279 279 278 278 277 277 278 277 276 273 270 267 265 263
145 134 123 116 114 116 121 127 134 144 157 171 182 193 207 224 233 238 241 245 252 257 258 254 244 235 229 225 230 246 273 295 298 297 295 294 294 294 294 294 294 292 291 290 288 287 287 287 285 283 281 279 278 277 276 274 273 274 274 276 278 279 280 279 278 277 277 276 274
139 131 127 127 133 140 148 156 163 175 186 196 201 207 216 227 234 240 245 252 256 255 250 244 237 230 227 226 233 260 290 300 299 298 297 295 293 292 292 293 291 288 286 284 284 283 282 282 283 282 280 278 276 273 270 266 264 265 269 275 280 282 283 282 281 281 281 281 280
147 149 154 160 163 168 174 183 193 201 208 212 214 218 223 231 236 242 250 256 254 247 240 237 237 236 237 252 282 297 296 291 289 291 292 293 292 292 291 291 289 287 284 283 283 281 280 279 281 281 281 279 277 274 270 262 259 262 268 275 280 284 285 285 282 280 279 279 279
168 173 179 183 184 187 194 202 210 215 220 223 226 229 232 236 240 244 248 249 244 238 234 235 242 253 277 314 315 308 297 287 283 283 285 288 290 291 291 290 288 286 284 284 283 282 282 282 282 281 280 276 271 269 270 270 268 270 273 277 281 284 286 287 285 283 282 281 280
182 190 197 199 198 202 208 212 216 221 226 231 233 235 238 242 242 239 234 231 233 234 237 243 260 283 306 319 308 297 290 284 282 280 280 281 284 286 286 286 285 283 282 283 282 283 283 284 285 284 281 265 252 254 266 275 278 280 281 282 283 284 284 285 286 286 286 285 283
198 205 209 209 211 214 217 218 221 226 230 232 234 237 239 240 227 214 212 220 231 247 269 292 297 306 314 314 297 288 283 281 280 281 280 281 281 281 280 281 280 280 281 282 284 285 286 287 287 289 290 282 263 260 271 279 284 286 287 287 286 285 284 284 285 286 286 285 284
213 215 217 217 221 224 225 225 226 228 231 233 234 235 229 207 193 194 203 221 269 317 325 318 319 321 319 308 297 290 285 280 279 280 282 285 284 281 278 276 277 278 280 283 286 287 288 289 292 299 307 313 304 292 286 286 289 290 291 290 288 287 286 285 285 284 283 283 282
218 219 221 223 228 231 232 231 230 230 231 231 226 212 189 173 174 172 164 25 354 339 328 326 327 323 315 306 300 293 286 279 278 279 282 283 281 280 278 277 277 279 282 286 288 290 293 298 307 314 318 319 312 305 297 293 292 291 291 289 287 285 283 281 280 279 278 278 278
223 222 224 226 231 233 234 232 230 228 224 213 191 172 159 149 135 118 80 25 354 340 334 333 328 320 311 303 295 286 280 278 280 280 278 276 275 276 278 279 278 280 284 287 290 294 301 312 319 320 318 317 312 307 301 296 292 289 287 285 282 280 278 277 276 275 274 274 274
228 225 225 227 231 232 232 229 224 212 191 166 151 139 127 115 110 88 37 12 354 343 336 330 320 310 301 292 285 279 276 276 279 277 275 272 273 276 280 282 281 282 284 288 293 302 312 320 321 320 318 317 312 306 299 293 288 285 281 278 276 274 272 272 273 273 273 272 272
231 227 226 227 230 232 233 226 198 152 130 119 109 101 95 91 63 31 13 360 345 333 322 310 298 290 283 279 277 275 275 275 275 275 275 273 275 279 284 286 284 285 287 293 302 312 319 322 322 321 319 317 312 305 297 290 286 282 279 277 275 273 271 269 270 271 272 272 272
229 227 227 229 233 237 242 76 86 88 88 83 77 72 62 45 24 7 350 334 321 306 292 280 273 270 267 265 265 269 273 277 277 279 279 280 282 286 289 289 285 288 294 302 312 319 322 324 323 322 320 317 312 304 295 289 286 283 281 279 278 276 274 271 271 271 273 274 275
225 226 229 236 245 308 51 64 69 70 68 65 52 41 28 17 358 337 317 302 289 278 270 266 263 261 260 258 255 261 271 279 282 283 285 287 292 293 291 287 285 289 298 308 317 322 325 326 324 322 320 317 310 301 294 290 288 286 285 284 282 278 276 274 274 275 278 282 286
227 225 224 39 49 55 62 66 64 58 49 39 26 10 353 336 317 301 288 277 270 268 267 267 267 269 270 272 270 270 273 279 285 289 291 293 295 293 288 285 284 289 298 309 319 324 326 326 324 322 321 316 309 301 297 294 293 291 288 286 282 278 277 277 281 287 294 300 303
61 77 74 68 65 64 63 59 50 38 24 8 352 334 316 303 292 281 272 264 264 265 267 268 270 270 270 274 278 278 279 280 286 290 293 294 288 281 278 280 281 286 296 308 319 325 326 326 324 323 322 315 309 305 302 299 296 293 288 284 281 281 283 290 300 308 312 311 308
72 79 81 76 70 60 49 37 23 7 350 333 316 302 290 282 277 273 267 260 257 258 260 262 264 265 266 270 277 282 284 284 283 285 288 288 275 261 258 272 279 284 295 309 321 326 327 327 325 324 323 314 311 308 305 303 298 292 288 284 286 295 309 322 321 314 307 301 300
83 82 78 70 57 39 18 3 348 332 315 300 289 281 276 272 271 270 266 250 226 224 236 253 263 267 269 275 284 290 292 291 283 277 275 276 262 247 242 258 277 285 297 312 323 327 328 327 325 324 322 315 312 309 307 304 299 294 292 293 304 316 321 315 306 299 295 292 295
81 74 66 54 33 5 342 325 308 293 282 274 272 272 272 270 268 268 269 247 201 207 227 250 266 272 276 284 290 294 296 297 293 283 268 261 260 256 254 256 277 287 299 313 324 328 328 327 324 323 322 315 313 310 307 306 302 300 301 307 313 311 306 300 297 295 293 291 294
79 72 62 36 336 300 287 280 274 270 266 266 267 269 270 270 269 275 286 300 260 246 249 262 274 280 286 293 293 294 296 300 299 291 275 260 264 266 267 265 282 292 302 313 324 327 327 325 322 321 320 315 313 311 308 307 304 303 303 304 304 304 302 302 300 298 297 295 295